User: anonymous   Login
Location: Keewatin
(47.4004°N, 93.0827°W)
Time: 10:46:58
(UTC+00:00)
Language:

ISS - Orbit

View from above orbital plane
View from above orbital plane
View from above satellite
View from above satellite

Ground track
Ground track

The orbit data is extracted from the following two-line orbital elements,

1 25544U 98067A   20058.51890254  .00016717  00000-0  10270-3 0  9017
2 25544  51.6430 176.0471 0005140 320.5500  39.5276 15.49197808 14854
Epoch (UTC): 27 February 2020 12:27:13
Eccentricity: 0.0005140
inclination: 51.6430°
perigee height: 415 km
apogee height: 422 km
right ascension of ascending node: 176.0471°
argument of perigee: 320.5500°
revolutions per day: 15.49197808
mean anomaly at epoch: 39.5276°
orbit number at epoch: 1485

The dashed part of the orbit path shows where the satellite is in the earth's shadow,  

DLR